Location: *
(45.8500°N, 8.6333°E)
Time: 02:11:12
(UTC+00:00)

Daily predictions for brighter satellites

Satellite Brightness Start Highest point End
(mag) Time Altitude Azimuth Time Altitude Azimuth Time Altitude Azimuth
Unknown 3.7 00:05:21 77° NNE 00:05:21 77° NNE 00:09:19 10° ENE
Cosmos 1538 Rocket 4.4 00:01:37 10° NNW 00:06:48 57° ENE 00:08:35 37° ESE
Unknown 3.6 00:06:57 77° N 00:06:57 77° N 00:10:58 10° ENE
NOSS 2-2 (E) 3.7 00:07:35 53° WNW 00:07:49 54° NW 00:12:06 10° NNE
Cosmos 1666 4.1 00:08:13 30° E 00:08:13 30° E 00:11:30 10° NNE
Unknown 3.6 00:08:32 77° NNW 00:08:32 77° NNW 00:12:37 10° ENE
Unknown 3.6 00:10:07 76° NNW 00:10:07 76° NNW 00:14:17 10° ENE
H-2A R/B 3.8 00:08:37 20° ESE 00:10:41 28° ENE 00:14:33 10° N
Unknown 3.7 00:16:31 67° WNW 00:16:48 69° NNW 00:20:57 10° ENE
RESURS DK-1 4.0 00:17:15 24° E 00:17:15 24° E 00:20:22 10° NE
CZ-4B R/B 3.4 00:13:29 10° NNE 00:18:25 67° ESE 00:19:08 58° SSE
Unknown 3.8 00:18:06 64° WNW 00:18:27 68° NNW 00:22:35 10° NE
USA 238 DEB 4.3 00:13:11 10° NW 00:19:50 41° WSW 00:21:02 38° SW
USA 238 4.3 00:13:17 10° NW 00:19:56 41° WSW 00:21:09 39° SW
Unknown 3.8 00:19:43 61° WNW 00:20:08 66° NNW 00:24:17 10° NE
Cosmos 2369 Rocket 2.6 00:15:54 10° NW 00:21:17 44° WSW 00:21:43 43° WSW
ATLAS 2AS CENTAUR R/B 3.2 00:17:20 31° SW 00:21:42 74° NW 00:29:48 10° NE
Unknown 3.9 00:21:19 59° WNW 00:21:48 65° NNW 00:25:56 10° NE
Cosmos 1340 4.5 00:22:25 22° E 00:22:37 22° E 00:25:34 10° NE
Unknown 3.9 00:22:51 56° WNW 00:23:25 64° NNW 00:27:33 10° NE
SL-16 R/B 3.4 00:19:40 18° SE 00:23:57 45° ENE 00:29:47 10° N
NOSS 2-2 (D) 4.0 00:24:39 43° WNW 00:25:08 46° NW 00:29:19 10° NNE
Unknown 4.0 00:24:36 53° WNW 00:25:16 62° NNW 00:29:25 10° NE
Cosmos 1782 Rocket 3.6 00:25:59 62° SE 00:26:24 66° E 00:30:51 10° NNE
Unknown 4.0 00:26:07 52° WNW 00:26:49 61° NNW 00:30:56 10° NE
Unknown 4.3 00:26:33 39° WNW 00:27:22 46° NNW 00:31:06 10° NE
Starlink (trailer) 4.0 00:27:41 49° WNW 00:28:27 60° NNW 00:32:34 10° NE
CZ-4C R/B 3.9 00:29:28 50° W 00:29:28 50° W 00:33:45 10° NNW
Unknown 4.1 00:29:17 47° WNW 00:30:07 58° NNW 00:34:14 10° NE
Unknown 4.3 00:29:45 38° WNW 00:30:43 47° NNW 00:34:32 10° NE
Unknown 4.1 00:30:51 45° WNW 00:31:46 57° NNW 00:35:53 10° NE
Cosmos 1777 Rocket 3.9 00:31:10 57° S 00:32:11 77° ESE 00:37:27 10° NNE
Unknown 4.1 00:31:56 45° WNW 00:32:50 56° NNW 00:36:53 10° NE
Meteor 1-11 Rocket 3.9 00:33:53 45° SW 00:35:23 60° WNW 00:41:05 10° N
Unknown 4.2 00:37:13 38° WNW 00:38:26 53° NNW 00:42:31 10° NE
Cosmos 2315 Rocket 4.2 00:36:24 41° SW 00:38:30 61° WNW 00:44:49 10° N
Unknown 4.3 00:38:50 37° WNW 00:40:08 52° NNW 00:44:12 10° NE
Cosmos 1500 4.1 00:41:42 38° WNW 00:41:42 38° WNW 00:45:11 10° N
Unknown 4.3 00:40:26 35° WNW 00:41:49 51° NNW 00:45:53 10° NE
Unknown 4.4 00:42:01 34° WNW 00:43:27 50° NNW 00:47:30 10° NE
Meteor 2-8 Rocket 4.4 00:42:52 45° SSW 00:44:55 84° W 00:51:04 10° N
Unknown 4.4 00:43:39 31° WNW 00:45:15 48° NNW 00:49:18 10° NE
PSLV R/B 4.3 00:42:34 10° N 00:46:30 38° WNW 00:46:59 37° W
Unknown 4.4 00:45:14 31° WNW 00:46:49 48° NNW 00:50:51 10° NE
Unknown 4.5 00:48:23 29° WNW 00:50:07 47° NNW 00:54:09 10° NE
Cosmos 1656 Rocket 3.8 00:47:34 10° NNW 00:53:09 59° WSW 00:54:32 46° SSW
Cosmos 1346 Rocket 2.9 00:54:41 59° SE 00:55:08 64° E 00:59:05 10° NNE
EXPRESS MD2 4.3 00:56:15 27° NNE 00:56:15 27° NNE 00:58:16 10° ENE
Cosmos 1975 Rocket 3.1 00:54:48 10° NNW 00:59:04 58° W 00:59:24 56° WSW
ADEOS II 4.2 00:55:46 10° NE 00:59:21 18° E 01:02:55 10° SE
Resurs 1-4 Rocket 2.5 00:55:47 10° NNE 01:01:01 56° E 01:03:03 35° SSE
NPP 4.0 00:56:09 10° NNE 01:01:28 56° E 01:03:37 34° SSE
Cosmos 773 Rocket 4.5 00:57:37 10° NW 01:02:30 41° WSW 01:03:03 39° WSW
Cosmos 1536 4.1 01:02:17 28° W 01:02:34 29° WNW 01:06:07 10° NNW
Cosmos 1943 4.3 01:02:56 23° WSW 01:05:37 36° NW 01:10:50 10° NNE
Aureole 2 Rocket 4.4 01:03:28 10° N 01:06:05 23° ENE 01:07:51 14° ESE
Sich 1 Rocket 3.9 01:06:25 47° WSW 01:07:17 55° WNW 01:11:50 10° N
Cosmos 2327 Rocket 4.5 01:01:29 10° N 01:07:51 88° E 01:11:16 30° S
Cosmos 2184 Rocket 4.0 01:03:51 10° NNW 01:10:07 71° W 01:12:48 36° SSW
UNK 3.6 01:09:55 43° SSE 01:11:27 89° WSW 01:16:04 10° NNW
Cosmos 1378 4.2 01:08:41 10° N 01:12:12 39° ENE 01:13:44 26° SE
deb Chang Zheng 4 4.5 01:08:51 10° NNE 01:12:53 40° E 01:14:23 29° SE
SJ 16-02 3.3 01:12:33 16° SE 01:14:35 21° E 01:17:55 10° NE
SAR-Lupe-4 3.8 01:16:09 51° W 01:16:09 51° W 01:19:29 10° NNW
USA 215 4.4 01:10:48 10° E 01:16:54 44° NNE 01:23:01 10° NW
Cosmos 2112 Rocket 4.3 01:11:36 10° NNW 01:16:56 68° ENE 01:21:11 16° SSE
SL-4 R/B 2.2 01:13:22 10° WNW 01:18:00 60° SW 01:21:02 19° SE
Cosmos 1943 Rocket 4.1 01:18:20 10° WNW 01:20:20 13° W 01:20:20 13° W
CZ-4B R/B 3.8 01:22:42 10° ESE 01:25:01 20° ENE 01:27:20 10° NNE
NOSS 3-4 (A) 4.2 01:22:55 21° WSW 01:26:45 48° NW 01:33:01 10° NNE
NOSS 3-4 (C) 4.1 01:23:02 22° WSW 01:26:50 48° NW 01:33:06 10° NNE
Cosmos 1743 3.1 01:34:43 42° WSW 01:35:24 47° WNW 01:39:09 10° N
CENTAUR R/B 3.6 01:28:51 10° NW 01:36:18 40° WSW 01:40:52 24° SSW
ARIANE 5 R/B 3.5 01:31:49 10° NNE 01:36:42 42° E 01:40:15 18° SSE
CBERS-1 4.0 01:34:53 10° NNE 01:40:04 90° NW 01:42:37 31° SSW
CZ-2D R/B 2.2 01:35:39 10° N 01:41:05 70° WNW 01:43:48 30° SSW
Cosmos 923 Rocket 4.2 01:36:40 10° NNW 01:41:50 51° WSW 01:44:11 30° SSW
Cosmos 1666 4.3 01:43:07 20° W 01:43:45 21° WNW 01:46:44 10° NNW
Cosmos 2084 3.3 01:40:04 10° NW 01:44:17 89° WSW 01:48:24 10° SE
Cosmos 1544 4.3 01:42:32 21° SSE 01:44:30 37° E 01:47:58 10° NNE
ATLAS 3B R/B 3.6 01:39:36 10° WNW 01:44:54 26° WSW 01:45:58 24° SW
Okean 2 Rocket 3.8 01:44:08 31° WSW 01:45:28 39° WNW 01:49:39 10° N
H-2A R/B 2.9 01:45:43 31° WSW 01:46:34 33° W 01:50:40 10° NNW
Cosmos 1536 Rocket 3.7 01:42:54 10° NNW 01:47:19 60° W 01:49:09 33° SSW
Meteor 2-9 Rocket 4.2 01:44:57 26° S 01:48:08 84° E 01:53:49 10° NNE
Cosmos 1975 3.3 01:48:03 35° WSW 01:49:14 45° WNW 01:53:11 10° N
Cosmos 2082 Rocket 4.4 01:46:15 10° SE 01:49:55 18° E 01:53:36 10° ENE
RESURS DK-1 3.4 01:53:09 25° WSW 01:54:53 36° NW 01:58:46 10° NNE
Nadezhda 1 Rocket 4.4 01:52:01 26° SW 01:55:29 51° WNW 02:01:40 10° N
Cosmos 405 3.1 01:53:19 10° N 01:56:52 73° ENE 01:59:05 21° SSE
Genesis I 4.4 01:55:09 22° W 01:57:08 36° NW 02:00:55 10° NNE
AQUA 4.1 01:53:26 10° N 01:58:06 55° WNW 02:00:28 27° SW
Cosmos 1340 3.9 01:57:12 24° W 01:58:08 27° WNW 02:01:23 10° NNW
Cosmos 1689 Rocket 3.7 01:58:23 10° SE 02:01:06 33° ENE 02:03:50 10° N
Landsat 5 3.5 01:59:08 23° S 02:01:49 68° WSW 02:06:06 10° NNW
Cosmos 1842 3.5 01:59:13 10° NNW 02:02:58 49° W 02:04:23 32° SSW
Cosmos 1300 Rocket 4.2 02:01:35 28° SW 02:03:24 41° WNW 02:07:38 10° N
Cosmos 1937 Rocket 3.6 02:01:36 22° S 02:04:57 74° ESE 02:10:14 10° NNE
Cosmos 1680 Rocket 4.0 02:00:37 10° NW 02:05:34 41° WSW 02:08:25 23° SSW
Meteor 1-12 Rocket 4.4 02:01:44 22° SSW 02:05:48 81° W 02:11:53 10° N
CZ-4C R/B 3.6 02:06:33 32° SW 02:07:24 38° W 02:10:49 10° NNW
SL-16 R/B 3.3 02:04:46 23° SW 02:07:41 34° W 02:13:15 10° NNW
Spot 4 Rocket 4.3 02:03:24 10° NNE 02:08:34 68° ESE 02:12:40 16° S
Iridium 51 4.5 02:08:01 26° SSW 02:10:17 62° W 02:14:15 10° N
Atlas Centaur 2 3.9 02:08:24 19° SSW 02:10:41 22° S 02:15:49 10° SE
Meteor 1-21 4.5 02:06:43 10° NNW 02:12:21 53° W 02:16:30 18° SSW
Cosmos 2366 rocket 4.1 02:07:10 10° N 02:13:21 75° E 02:19:30 10° SSE
Cosmos 1898 Rocket 3.6 02:10:31 23° SSW 02:13:50 71° WNW 02:19:10 10° NNE
Cosmos 1025 Rocket 3.7 02:11:10 10° NNW 02:15:15 38° W 02:17:18 24° SW
Meteor 2-17 Rocket 4.5 02:09:16 10° N 02:15:27 90° WSW 02:21:37 10° S
SL-08 R/B 3.7 02:17:23 21° SSW 02:20:13 43° W 02:24:47 10° NNW
Milstar 3 4.0 02:19:34 17° SSW 02:21:25 19° S 02:26:14 10° SE
IRS-1C 4.4 02:18:44 10° N 02:23:58 56° WNW 02:27:46 18° SW
Cosmos 2341 Rocket 4.3 02:20:00 10° NNW 02:26:08 51° W 02:31:35 13° SSW
IRS-1D 4.1 02:24:42 10° N 02:29:18 40° WNW 02:32:38 18° SW
Cosmos 44 3.0 02:25:04 10° NW 02:29:41 89° SW 02:34:03 10° SE
CZ-2C R/B 3.0 02:27:50 10° NNE 02:31:35 67° ESE 02:35:00 12° S
Cosmos 2218 Rocket 4.0 02:25:22 10° NNW 02:31:35 76° W 02:37:50 10° S
Okean 1 Rocket 3.5 02:29:15 20° SW 02:32:06 46° WNW 02:36:26 10° N
Cosmos 1441 Rocket 3.6 02:35:13 10° S 02:39:01 63° E 02:42:54 10° NNE
ADEOS II 2.2 02:34:18 10° N 02:39:31 65° WNW 02:44:05 13° SSW
GPS 2-04 Rocket1 4.5 02:39:08 13° S 02:39:56 13° S 02:41:45 10° SE
Aureole 2 Rocket 3.7 02:37:58 10° NW 02:40:08 18° W 02:40:24 17° WSW
COSMOS 2406 3.4 02:35:45 17° SW 02:40:10 60° WNW 02:45:49 10° NNE
Resurs 1-4 Rocket 3.6 02:36:22 10° N 02:40:26 23° WNW 02:44:07 12° WSW
TSX-5 3.3 02:37:29 10° NW 02:40:34 52° WSW 02:43:47 10° SSE
Aureole 3 3.0 02:43:36 16° SSW 02:45:58 61° WNW 02:49:37 10° N
Cosmos 1697 Rocket 2.8 02:44:28 10° NNW 02:50:10 85° ENE 02:55:51 10° SSE
Meteor 2-5 Rocket 4.2 02:46:34 10° N 02:52:11 66° ENE 02:57:40 10° SSE
PSLV R/B 4.5 02:48:09 10° SSE 02:52:12 63° ENE 02:56:19 10° N
Cosmos 1833 Rocket 2.8 02:47:10 10° SSW 02:52:46 78° ESE 02:58:26 10° NNE
SJ 16-02 2.1 02:49:33 14° SW 02:52:54 40° WNW 02:57:03 10° N
Okean 1-7 Rocket 3.7 02:49:19 10° NNW 02:53:48 62° W 02:58:13 10° S
Cosmos 44 Rocket 4.3 02:52:01 10° NNW 02:56:46 50° NE 03:01:20 10° SE
SL-4 R/B 4.1 02:55:03 10° WSW 02:55:57 12° WSW 02:55:57 12° WSW
CZ-4B R/B 2.6 02:55:44 15° SW 02:57:20 21° W 02:59:46 10° NW
Cosmos 1980 Rocket 2.9 02:53:46 10° NNW 02:59:18 58° ENE 03:04:49 10° SE
USA 215 3.3 02:53:02 10° SE 02:59:35 86° SW 03:06:10 10° NW
Cosmos 1656 3.9 02:54:13 10° NW 02:59:44 51° WSW 03:05:12 10° S
Cosmos 1544 Rocket 3.6 02:56:09 10° S 03:00:28 80° E 03:04:49 10° N
Meteor 1-24 Rocket 4.5 02:55:15 10° N 03:00:38 54° ENE 03:05:51 10° SSE
Cosmos 1805 4.1 03:00:59 10° S 03:04:45 51° E 03:08:34 10° NNE
CBERS 1 LM4 rocket 4.4 03:02:12 10° NNE 03:06:59 80° WNW 03:11:49 10° SSW
Cosmos 1674 3.4 03:04:58 10° N 03:08:47 59° E 03:12:35 10° SSE
Cosmos 1455 Rocket 3.1 03:05:15 10° SSW 03:09:36 69° W 03:13:57 10° N
H-2A R/B 3.0 03:05:42 10° NNE 03:10:13 67° ESE 03:14:42 10° S
BREEZE-M DEB (TANK) 3.8 03:00:08 10° WNW 03:10:41 58° SW 03:13:58 10° SE
Cosmos 2278 3.7 03:05:27 10° NNW 03:11:06 76° WSW 03:16:44 10° SSE
EXPRESS MD2 3.0 03:09:26 10° WNW 03:12:12 85° SSW 03:17:16 10° ESE
Cosmos 1707 3.9 03:09:34 10° NNW 03:12:46 25° W 03:15:57 10° SW
Nadezhda 3 Rocket 4.1 03:06:40 10° S 03:13:01 86° E 03:19:21 10° N
ARIANE 5 R/B 3.7 03:11:17 10° N 03:15:38 29° WNW 03:20:00 10° WSW
Meteor 1-28 Rocket 3.5 03:15:19 10° S 03:18:59 47° W 03:22:38 10° NNW
CZ-2D R/B 4.3 03:18:03 10° NNW 03:20:11 12° NW 03:22:20 10° WNW
Cosmos 1892 Rocket 4.3 03:18:26 10° NNW 03:22:21 33° W 03:26:16 10° SSW
